QPF
0.00 0.00 0.00 0.00 0.00 0.00 0.00 0.00 0.00 0.00 0.00 0.00 0.00 0.00 0.01 0.05 0.08 0.08 0.16 0.20 0.15 0.16 0.10 0.07 0.18 0.23 0.09
0.00 0.00 0.00 0.00 0.00 0.00 0.00 0.00 0.00 0.00 0.00 0.00 0.00 0.00 0.00 0.01 0.05 0.13 0.08 0.16 0.17 0.12 0.14 0.05 0.04 0.08 0.16
0.00 0.00 0.00 0.00 0.00 0.00 0.00 0.00 0.00 0.00 0.00 0.00 0.00 0.00 0.00 0.00 0.01 0.08 0.18 0.15 0.13 0.19 0.14 0.10 0.01 0.02 0.04
0.00 0.00 0.00 0.00 0.00 0.00 0.00 0.00 0.00 0.00 0.00 0.00 0.00 0.00 0.00 0.00 0.01 0.01 0.04 0.18 0.27 0.22 0.30 0.26 0.09 0.01 0.00
0.00 0.00 0.00 0.00 0.00 0.00 0.00 0.00 0.00 0.00 0.00 0.00 0.00 0.01 0.01 0.01 0.00 0.01 0.01 0.05 0.23 0.40 0.28 0.37 0.41 0.16 0.03
0.00 0.00 0.00 0.00 0.00 0.00 0.00 0.00 0.00 0.00 0.01 0.01 0.00 0.00 0.00 0.00 0.00 0.00 0.01 0.02 0.06 0.19 0.40 0.32 0.30 0.32 0.24
0.05 0.01 0.00 0.00 0.00 0.00 0.00 0.00 0.00 0.00 0.00 0.00 0.00 0.00 0.00 0.00 0.00 0.00 0.01 0.04 0.10 0.21 0.24 0.36 0.36 0.26 0.19
0.05 0.03 0.00 0.00 0.00 0.00 0.00 0.00 0.00 0.00 0.00 0.01 0.00 0.00 0.00 0.00 0.00 0.00 0.01 0.03 0.08 0.15 0.21 0.31 0.45 0.37 0.26
0.00 0.00 0.00 0.00 0.02 0.02 0.02 0.00 0.01 0.00 0.00 0.00 0.00 0.00 0.00 0.00 0.00 0.00 0.01 0.01 0.02 0.10 0.16 0.23 0.37 0.43 0.42
0.00 0.00 0.00 0.01 0.02 0.04 0.08 0.09 0.04 0.02 0.00 0.01 0.00 0.02 0.04 0.00 0.02 0.02 0.02 0.03 0.01 0.02 0.09 0.20 0.29 0.35 0.48
0.02 0.00 0.00 0.00 0.00 0.00 0.00 0.00 0.01 0.00 0.00 0.00 0.00 0.01 0.04 0.01 0.00 0.01 0.01 0.02 0.01 0.01 0.02 0.11 0.23 0.37 0.47
0.03 0.02 0.01 0.00 0.00 0.00 0.00 0.00 0.00 0.00 0.00 0.00 0.01 0.00 0.02 0.03 0.01 0.00 0.00 0.01 0.01 0.01 0.02 0.05 0.16 0.21 0.40
0.02 0.02 0.02 0.01 0.01 0.02 0.01 0.01 0.00 0.00 0.00 0.00 0.02 0.01 0.02 0.03 0.02 0.01 0.00 0.00 0.02 0.03 0.04 0.07 0.09 0.20 0.33
0.01 0.00 0.01 0.01 0.02 0.01 0.02 0.01 0.02 0.01 0.00 0.03 0.04 0.05 0.06 0.02 0.02 0.02 0.00 0.01 0.02 0.04 0.04 0.07 0.13 0.15 0.21
0.01 0.01 0.01 0.02 0.02 0.03 0.04 0.02 0.03 0.01 0.00 0.00 0.00 0.01 0.05 0.04 0.03 0.01 0.00 0.00 0.00 0.02 0.05 0.04 0.07 0.10 0.12
0.01 0.01 0.01 0.01 0.01 0.02 0.05 0.06 0.04 0.01 0.00 0.00 0.00 0.03 0.03 0.00 0.00 0.00 0.00 0.00 0.00 0.01 0.03 0.04 0.02 0.04 0.08
0.02 0.02 0.01 0.01 0.01 0.01 0.01 0.02 0.03 0.02 0.02 0.03 0.02 0.02 0.01 0.00 0.00 0.00 0.00 0.00 0.01 0.01 0.02 0.04 0.02 0.02 0.05
MSLP
1019.59 1019.49 1019.23 1018.94 1018.63 1018.38 1018.06 1017.54 1016.84 1016.03 1015.40 1014.68 1014.11 1013.40 1012.82 1012.29 1011.77 1011.67 1010.89 1010.42 1009.59 1009.14 1007.35 1008.25 1009.15 1009.99 1010.92
1018.61 1018.58 1018.43 1018.30 1017.95 1017.62 1017.14 1016.46 1015.85 1015.15 1014.50 1013.89 1013.19 1012.45 1011.77 1011.15 1010.86 1010.73 1010.39 1009.91 1009.01 1008.65 1008.52 1006.26 1007.47 1008.59 1009.47
1017.79 1018.04 1017.53 1017.38 1016.92 1016.57 1016.18 1015.70 1015.01 1014.24 1013.41 1012.79 1011.84 1011.01 1010.39 1010.01 1009.71 1009.22 1008.50 1008.45 1008.38 1007.93 1006.97 1006.31 1005.63 1006.88 1008.00
1017.35 1017.10 1016.82 1016.45 1016.29 1015.90 1015.13 1014.87 1014.06 1013.35 1012.68 1012.02 1011.17 1010.33 1009.61 1009.15 1008.61 1008.32 1008.14 1007.85 1007.92 1007.79 1006.49 1006.07 1004.11 1004.97 1006.35
1016.20 1016.08 1015.62 1015.47 1015.18 1014.77 1014.27 1013.68 1012.96 1012.66 1011.89 1010.99 1010.49 1009.66 1008.86 1008.47 1008.05 1007.66 1007.08 1007.19 1007.24 1006.53 1005.49 1005.49 1004.41 1003.27 1004.71
1014.55 1014.58 1013.98 1013.98 1013.94 1013.68 1013.28 1012.97 1012.10 1011.48 1010.90 1010.01 1009.93 1009.09 1008.52 1008.12 1007.67 1007.33 1006.93 1006.66 1006.42 1005.62 1004.31 1003.90 1003.74 1002.56 1003.04
1012.68 1012.68 1012.40 1012.28 1012.62 1012.48 1012.30 1011.94 1011.15 1010.74 1010.77 1009.62 1009.41 1008.55 1008.04 1007.34 1006.77 1006.24 1005.66 1005.15 1004.29 1004.26 1003.01 1002.93 1002.65 1002.56 1001.57
1011.27 1011.05 1010.85 1010.73 1010.96 1010.93 1010.85 1010.62 1010.14 1009.75 1009.86 1008.83 1008.44 1007.38 1006.98 1006.29 1005.53 1004.83 1004.09 1003.65 1003.20 1002.88 1002.06 1002.10 1002.18 1001.40 1001.21
1009.54 1009.18 1009.15 1009.10 1009.43 1009.75 1009.48 1009.55 1008.70 1008.34 1008.22 1007.83 1007.17 1006.76 1006.11 1005.01 1004.07 1003.14 1002.78 1002.20 1001.85 1001.27 1001.77 1001.20 1001.58 1000.79 1000.35
1008.32 1007.84 1007.41 1007.43 1007.48 1007.64 1007.72 1007.44 1007.41 1006.84 1006.53 1006.82 1006.39 1006.34 1005.01 1003.35 1002.78 1002.31 1001.88 1001.05 1001.26 1000.89 1000.06 1000.66 1000.37 1000.07 998.70
1007.67 1006.88 1006.51 1006.46 1006.38 1006.39 1006.39 1006.34 1006.08 1005.67 1005.58 1005.73 1005.48 1005.47 1005.18 1004.13 1002.68 1002.06 1001.51 1000.97 1000.65 1000.06 998.99 998.21 998.71 998.57 997.48
1007.32 1006.36 1005.57 1005.39 1005.10 1005.12 1005.05 1005.16 1004.99 1004.58 1004.53 1004.78 1004.53 1004.60 1004.22 1003.41 1002.44 1001.57 1001.23 1000.70 1000.09 999.73 998.45 997.75 998.57 997.68 996.29
1006.88 1006.23 1005.68 1004.91 1004.46 1004.26 1004.18 1004.01 1003.84 1003.60 1003.45 1003.55 1003.63 1003.54 1003.42 1002.79 1002.22 1001.71 1001.26 1000.53 1000.19 999.76 999.27 998.82 998.68 997.69 996.79
1006.73 1006.15 1005.47 1004.75 1004.03 1003.38 1003.16 1003.01 1002.90 1002.58 1002.35 1002.24 1002.20 1002.20 1001.90 1001.74 1001.65 1001.16 1001.03 1000.95 1000.07 999.82 999.62 999.10 998.74 998.32 998.05
1006.49 1005.80 1005.09 1004.41 1003.64 1003.05 1002.35 1002.06 1001.90 1001.68 1001.34 1001.08 1001.09 1001.07 1000.89 1000.76 1000.60 1000.52 1000.41 1000.19 999.98 999.79 999.79 998.81 998.25 998.00 998.03
1006.16 1005.52 1004.80 1004.20 1003.50 1002.80 1002.39 1001.89 1001.27 1000.89 1000.61 1000.39 1000.43 1000.52 1000.24 1000.03 1000.09 1000.04 999.95 999.66 999.35 999.28 999.29 998.50 997.37 996.72 996.63
1005.88 1005.17 1004.61 1004.01 1003.39 1002.79 1002.24 1001.68 1001.17 1000.86 1000.54 1000.17 1000.01 1000.01 999.83 999.47 999.05 998.72 999.06 998.85 998.61 998.34 997.81 997.33 997.18 996.21 995.80
Thickness
5275 5273 5275 5278 5282 5286 5297 5315 5342 5367 5390 5415 5435 5456 5477 5496 5515 5529 5549 5563 5582 5598 5622 5620 5619 5622 5620
5262 5256 5257 5257 5263 5267 5274 5285 5303 5329 5353 5379 5405 5430 5455 5477 5494 5510 5529 5546 5566 5581 5595 5624 5620 5617 5619
5240 5229 5233 5236 5244 5251 5259 5269 5279 5298 5319 5346 5377 5404 5429 5455 5475 5498 5519 5537 5552 5567 5590 5608 5621 5618 5616
5218 5214 5215 5218 5221 5233 5243 5251 5266 5278 5294 5317 5346 5376 5403 5428 5457 5477 5494 5517 5532 5548 5573 5590 5615 5619 5615
5209 5203 5207 5205 5207 5213 5227 5239 5254 5266 5278 5297 5317 5346 5376 5402 5431 5456 5481 5499 5516 5534 5560 5577 5588 5614 5613
5206 5201 5205 5200 5199 5201 5212 5224 5243 5255 5266 5287 5298 5324 5354 5380 5406 5430 5453 5477 5499 5520 5547 5569 5583 5603 5610
5209 5205 5203 5201 5196 5198 5202 5213 5233 5245 5249 5276 5284 5307 5329 5356 5383 5409 5435 5463 5490 5508 5539 5556 5572 5586 5608
5206 5206 5204 5202 5197 5196 5198 5207 5221 5236 5241 5263 5278 5299 5314 5338 5364 5395 5424 5451 5473 5497 5524 5543 5555 5572 5587
5208 5209 5207 5205 5198 5193 5199 5200 5218 5231 5238 5255 5276 5287 5296 5324 5354 5383 5412 5438 5462 5488 5502 5528 5541 5558 5573
5209 5209 5211 5208 5204 5199 5200 5205 5211 5226 5239 5247 5261 5268 5292 5317 5341 5368 5396 5422 5437 5463 5492 5510 5531 5548 5575
5206 5210 5208 5205 5203 5199 5199 5202 5210 5223 5230 5236 5250 5258 5274 5298 5322 5347 5374 5401 5424 5451 5482 5511 5526 5545 5573
5199 5206 5208 5205 5204 5202 5201 5201 5207 5220 5223 5231 5248 5257 5271 5289 5309 5332 5356 5384 5412 5438 5468 5495 5511 5535 5563
5194 5197 5199 5202 5202 5201 5200 5201 5207 5216 5221 5232 5242 5250 5263 5281 5297 5313 5339 5367 5392 5418 5442 5467 5489 5515 5541
5187 5189 5192 5195 5199 5202 5203 5204 5208 5215 5222 5231 5242 5249 5264 5277 5287 5305 5321 5344 5372 5395 5416 5441 5465 5488 5504
5181 5185 5188 5191 5196 5199 5205 5208 5211 5215 5223 5230 5239 5248 5259 5271 5286 5298 5311 5334 5353 5374 5397 5425 5450 5470 5483
5177 5180 5184 5187 5191 5196 5199 5204 5213 5219 5225 5231 5236 5243 5254 5267 5278 5288 5300 5317 5338 5360 5379 5407 5436 5458 5473
5172 5176 5179 5183 5186 5190 5195 5201 5207 5211 5217 5224 5232 5238 5248 5261 5270 5285 5294 5308 5327 5351 5373 5398 5419 5443 5464